[[{"header":{"parameterUnit":"m.s-1","parameterCategory":1,"la1":30.2991,"la2":30.254,"lo1":-89.0895,"lo2":-89.0444,"dy":0.0017,"dx":0.0017,"nx":28,"ny":28,"refTime":"2025-11-24T03:00:00:Z","depth":0,"parameterNumber":2,"parameterNumberName":"U-component_of_WINDS"},"data":[0,0,0,0,0,0,0,0,0,0,0,0,0,0,0,0,0,0,0,0,0,0,0,0,0,0,0,0,0,0,0,0,0,0,0,0,0,0,0,0,0,0,0,0,0,0,0,0,0,0,0,0,0,0,0,0,0,0,-1.4079,-1.4079,0,-1.4127,-1.4127,-1.4128,-1.4087,-1.4085,-1.4084,-1.4082,-1.4132,-1.4135,-1.4138,0,0,0,0,0,0,0,0,0,0,0,0,0,-1.3952,-1.3954,-1.4079,-1.4079,-1.408,-1.4126,-1.4127,-1.4128,-1.4087,-1.4085,-1.4083,-1.4081,-1.4131,-1.4134,-1.4138,0,0,0,0,0,0,0,0,0,0,0,0,0,-1.4004,-1.3955,-1.4078,-1.4065,-1.4064,-1.4126,-1.4127,-1.4128,-1.4088,-1.4085,-1.4083,-1.408,-1.413,-1.4134,-1.4138,-1.4216,0,0,-1.4152,-1.4154,0,0,0,0,0,0,0,0,-1.4001,-1.4009,-1.4067,-1.4066,-1.4065,-1.4098,-1.4101,-1.4158,-1.4088,-1.4079,-1.4082,-1.4079,-1.4123,-1.4128,-1.4142,-1.4219,-1.4221,-1.4152,-1.4155,-1.4157,-1.4158,0,0,0,0,0,0,0,-1.3997,-1.4006,-1.4098,-1.4067,-1.4067,-1.4057,-1.4061,-1.4111,-1.4115,-1.408,-1.4077,-1.4083,-1.4122,-1.4138,-1.4143,-1.4221,-1.4152,-1.4156,-1.4159,-1.416,-1.4363,-1.4366,0,0,0,0,0,0,-1.3995,-1.4004,-1.4096,-1.4099,-1.4026,-1.4061,-1.4066,-1.409,-1.4114,-1.4115,-1.4085,-1.4081,-1.4132,-1.4138,-1.4145,-1.4238,-1.4157,-1.4161,-1.4163,-1.436,-1.4364,-1.4367,0,0,0,0,0,0,-1.3993,-1.4004,-1.4094,-1.4051,-1.4061,-1.4066,-1.4093,-1.4093,-1.4109,-1.4118,-1.4118,-1.4101,-1.413,-1.4139,-1.4199,-1.4239,-1.4163,-1.4167,-1.4357,-1.4361,-1.4365,-1.4424,0,0,0,0,0,0,-1.3989,-1.4003,-1.4033,-1.4052,-1.4064,-1.4148,-1.4096,-1.4095,-1.4116,-1.4111,-1.4133,-1.4134,-1.4129,-1.4192,-1.4203,-1.4243,-1.417,-1.4354,-1.4359,-1.4364,-1.4418,-1.4429,-1.4439,0,0,0,0,0,-1.3985,-1.4048,-1.4035,-1.4046,-1.4101,-1.415,-1.4157,-1.4149,-1.412,-1.415,-1.4155,-1.4134,-1.4232,-1.4199,-1.421,-1.4253,-1.4351,-1.4358,-1.4364,-1.4414,-1.4427,-1.4439,0,0,0,0,0,0,-1.4035,-1.405,-1.4036,-1.4107,-1.4127,-1.4143,-1.4181,-1.4164,-1.4194,-1.4188,-1.4177,-1.4182,-1.4245,-1.4255,-1.4217,-1.4329,-1.4287,-1.4296,-1.4321,-1.4334,-1.4344,-1.4341,-1.4174,0,0,0,0,0,-1.4054,-1.4092,-1.4103,-1.4165,-1.4176,-1.4177,-1.4198,-1.419,-1.4211,-1.4219,-1.4229,-1.4251,-1.4286,-1.431,-1.4344,-1.4419,-1.4423,-1.4453,-1.4464,-1.4472,-1.448,-1.4521,-1.4534,-1.4387,-1.4387,-1.4387,0,0,-1.4094,-1.4107,-1.4132,-1.4175,-1.419,-1.423,-1.4184,-1.4229,-1.4258,-1.4226,-1.4284,-1.4291,-1.4314,-1.4382,-1.4413,-1.4392,-1.4521,-1.448,-1.4487,-1.4491,-1.4528,-1.4542,-1.4555,-1.4392,-1.4391,-1.439,0,0,-1.4188,-1.4202,-1.4255,-1.427,-1.4293,-1.4293,-1.4305,-1.4323,-1.4327,-1.4385,-1.4361,-1.4396,-1.4457,-1.4475,-1.4491,-1.459,-1.4571,-1.4601,-1.4656,-1.4695,-1.4707,-1.4717,-1.4753,-1.4766,-1.4609,-1.4609,-1.4609,0,-1.4236,-1.4295,-1.4284,-1.433,-1.435,-1.4321,-1.4374,-1.439,-1.4423,-1.4437,-1.4413,-1.4489,-1.4502,-1.4574,-1.4598,-1.4612,-1.4626,-1.46,-1.4706,-1.4716,-1.4725,-1.476,-1.4773,-1.4613,-1.4612,-1.4612,-1.4611,0,-1.4353,-1.4394,-1.4434,-1.4466,-1.4489,-1.4539,-1.4535,-1.456,-1.4549,-1.4552,-1.461,-1.4624,-1.466,-1.4676,-1.4666,-1.4746,-1.4732,-1.4707,-1.4665,-1.4743,-1.4775,-1.4788,-1.4618,-1.4616,-1.4615,-1.4614,0,0,-1.4483,-1.4506,-1.4521,-1.4535,-1.4557,-1.4589,-1.4636,-1.4671,-1.4693,-1.4716,-1.4756,-1.4807,-1.4784,-1.4803,-1.4794,-1.4829,-1.4906,-1.4799,-1.48,-1.482,-1.4996,-1.5016,-1.5031,-1.4893,-1.4895,-1.4897,-1.4994,0,-1.4579,-1.4662,-1.4652,-1.4731,-1.4769,-1.4742,-1.4783,-1.4801,-1.4804,-1.4836,-1.4838,-1.4876,-1.4841,-1.4853,-1.4885,-1.489,-1.4942,-1.4883,-1.4931,-1.4933,-1.4928,-1.5048,-1.507,-1.516,-1.5006,-1.5009,-1.501,0,-1.4703,-1.4729,-1.4812,-1.4828,-1.4844,-1.4881,-1.4911,-1.4942,-1.4962,-1.4961,-1.4982,-1.4967,-1.5014,-1.4969,-1.5034,-1.4994,-1.5013,-1.5018,-1.5021,-1.5027,-1.4978,-1.5058,-1.5189,-1.5203,-1.5029,-1.5028,-1.5026,0,-1.479,-1.4847,-1.4904,-1.4916,-1.4936,-1.4963,-1.4972,-1.4989,-1.501,-1.5035,-1.5049,-1.508,-1.5098,-1.5122,-1.5116,-1.5084,-1.5183,-1.5137,-1.5184,-1.5185,-1.5208,-1.5207,-1.5346,-1.5217,-1.5217,-1.5217,-1.5217,0,-1.49,-1.4952,-1.4943,-1.4979,-1.5036,-1.5024,-1.5081,-1.5086,-1.5101,-1.5137,-1.5114,-1.5148,-1.5137,-1.517,-1.5165,-1.522,-1.5228,-1.5229,-1.5227,-1.5232,-1.5232,-1.5246,-1.524,-1.5221,-1.522,-1.5219,-1.5218,0,-1.5009,-1.5005,-1.5065,-1.5078,-1.5082,-1.5124,-1.5135,-1.5168,-1.5167,-1.5213,-1.5223,-1.5223,-1.5261,-1.5256,-1.5298,-1.5295,-1.5364,-1.5354,-1.5358,-1.5356,-1.5404,-1.54,-1.5557,-1.5577,-1.5434,-1.5436,-1.5437,0,-1.508,-1.5119,-1.5136,-1.5158,-1.5169,-1.5205,-1.5226,-1.5214,-1.5237,-1.5261,-1.5291,-1.5327,-1.5355,-1.5416,-1.542,-1.5452,-1.5444,-1.5496,-1.5449,-1.5452,-1.5446,-1.5445,-1.5449,-1.5507,-1.5508,-1.551,-1.5511,0,-1.5207,-1.5203,-1.5234,-1.5264,-1.529,-1.5313,-1.5334,-1.5353,-1.5343,-1.537,-1.5408,-1.543,-1.5472,-1.5508,-1.5538,-1.5547,-1.5528,-1.5525,-1.5538,-1.5545,-1.5546,-1.5547,-1.5385,-1.5522,-1.5521,-1.552,-1.552,-1.5519,-1.53,-1.5334,-1.5351,-1.5386,-1.54,-1.542,-1.5451,-1.5454,-1.5486,-1.552,-1.551,-1.5554,-1.5571,-1.5608,-1.5621,-1.5654,-1.5635,-1.5653,-1.5658,-1.5663,-1.567,-1.5538,-1.5659,-1.5659,-1.5658,-1.5658,-1.5658,0,-1.5428,-1.5436,-1.5469,-1.5498,-1.5526,-1.5503,-1.5525,-1.555,-1.5588,-1.5605,-1.5633,-1.5676,-1.571,-1.5716,-1.5748,-1.5774,-1.5766,-1.5783,-1.5782,-1.5784,-1.5684,-1.5671,-1.5789,-1.5789,-1.5789,-1.5789,-1.5789,-1.5789,-1.5497,-1.5553,-1.5551,-1.5613,-1.5621,-1.5663,-1.5678,-1.5696,-1.5709,-1.5759,-1.5787,-1.5789,-1.5802,-1.5834,-1.5865,-1.5865,-1.5879,-1.59,-1.5897,-1.5804,-1.5791,-1.5779,-1.5766,-1.5902,-1.5902,-1.5995,-1.5995,-1.5996]},{"header":{"parameterUnit":"m.s-1","parameterCategory":1,"la1":30.2991,"la2":30.254,"lo1":-89.0895,"lo2":-89.0444,"dy":0.0017,"dx":0.0017,"nx":28,"ny":28,"refTime":"2025-11-24T03:00:00:Z","depth":0,"parameterNumber":3,"parameterNumberName":"V-component_of_WINDS"},"data":[0,0,0,0,0,0,0,0,0,0,0,0,0,0,0,0,0,0,0,0,0,0,0,0,0,0,0,0,0,0,0,0,0,0,0,0,0,0,0,0,0,0,0,0,0,0,0,0,0,0,0,0,0,0,0,0,0,0,-4.2495,-4.2496,0,-4.2533,-4.2534,-4.2534,-4.2471,-4.2469,-4.2466,-4.2464,-4.25,-4.2503,-4.2506,0,0,0,0,0,0,0,0,0,0,0,0,0,-4.2363,-4.2366,-4.2495,-4.2496,-4.2496,-4.2533,-4.2534,-4.2534,-4.2471,-4.2469,-4.2466,-4.2463,-4.2499,-4.2503,-4.2506,0,0,0,0,0,0,0,0,0,0,0,0,0,-4.2413,-4.2367,-4.2495,-4.2469,-4.2467,-4.2533,-4.2534,-4.2535,-4.2472,-4.2468,-4.2465,-4.2462,-4.2498,-4.2502,-4.2507,-4.2599,0,0,-4.252,-4.2522,0,0,0,0,0,0,0,0,-4.241,-4.2418,-4.2473,-4.2471,-4.2469,-4.2494,-4.25,-4.2556,-4.2473,-4.247,-4.2464,-4.2461,-4.2501,-4.2505,-4.2519,-4.2601,-4.2602,-4.2521,-4.2523,-4.2525,-4.2527,0,0,0,0,0,0,0,-4.2407,-4.2416,-4.251,-4.2473,-4.2471,-4.2454,-4.2458,-4.2511,-4.2503,-4.247,-4.2465,-4.2471,-4.2499,-4.2515,-4.2519,-4.2603,-4.2521,-4.2524,-4.2527,-4.2529,-4.276,-4.2764,0,0,0,0,0,0,-4.2407,-4.2413,-4.2509,-4.2511,-4.2431,-4.2459,-4.2463,-4.2489,-4.2502,-4.2501,-4.2474,-4.2468,-4.2509,-4.2514,-4.252,-4.2628,-4.2525,-4.2529,-4.2532,-4.2757,-4.2761,-4.2765,0,0,0,0,0,0,-4.2404,-4.2416,-4.2507,-4.2461,-4.2471,-4.2465,-4.2495,-4.2492,-4.2507,-4.2505,-4.2503,-4.2491,-4.2506,-4.2514,-4.258,-4.2628,-4.2531,-4.2535,-4.2753,-4.2758,-4.2763,-4.2845,0,0,0,0,0,0,-4.2401,-4.2416,-4.2452,-4.2463,-4.2474,-4.2568,-4.2498,-4.2495,-4.2516,-4.2508,-4.2521,-4.252,-4.2504,-4.2573,-4.2584,-4.2633,-4.2539,-4.2748,-4.2755,-4.2761,-4.2838,-4.2853,-4.2865,0,0,0,0,0,-4.2396,-4.2473,-4.2454,-4.2466,-4.2519,-4.2571,-4.2577,-4.2559,-4.252,-4.2555,-4.2553,-4.252,-4.2622,-4.2581,-4.2592,-4.2643,-4.2745,-4.2753,-4.2761,-4.2832,-4.285,-4.2865,0,0,0,0,0,0,-4.2467,-4.2474,-4.2453,-4.2535,-4.2553,-4.256,-4.2604,-4.2578,-4.2607,-4.2599,-4.2573,-4.2576,-4.2647,-4.2652,-4.2606,-4.2732,-4.2677,-4.2687,-4.2727,-4.2744,-4.2757,-4.2754,-4.2543,0,0,0,0,0,-4.2492,-4.2535,-4.2538,-4.261,-4.262,-4.2611,-4.2633,-4.2617,-4.2634,-4.2641,-4.2644,-4.2661,-4.2696,-4.272,-4.2753,-4.2839,-4.284,-4.2879,-4.2893,-4.2904,-4.2913,-4.2957,-4.2975,-4.2791,-4.2791,-4.2791,0,0,-4.2544,-4.2553,-4.2582,-4.2625,-4.2636,-4.268,-4.2618,-4.2666,-4.2698,-4.2648,-4.271,-4.2713,-4.273,-4.2806,-4.284,-4.2812,-4.2964,-4.2914,-4.2922,-4.2926,-4.2967,-4.2985,-4.3,-4.2796,-4.2795,-4.2794,0,0,-4.2662,-4.2673,-4.2735,-4.2748,-4.2767,-4.276,-4.2775,-4.2786,-4.2787,-4.2849,-4.2812,-4.2848,-4.2911,-4.2924,-4.2939,-4.3061,-4.303,-4.3072,-4.3142,-4.3186,-4.3201,-4.3213,-4.3256,-4.3272,-4.3081,-4.3082,-4.3082,0,-4.2724,-4.2789,-4.2769,-4.282,-4.284,-4.2797,-4.2858,-4.2872,-4.29,-4.2914,-4.2883,-4.2959,-4.2968,-4.3046,-4.3076,-4.309,-4.3104,-4.3071,-4.3201,-4.3213,-4.3225,-4.3265,-4.3281,-4.3087,-4.3086,-4.3086,-4.3085,0,-4.2864,-4.291,-4.2957,-4.2987,-4.3011,-4.3067,-4.3054,-4.3081,-4.3063,-4.3059,-4.3122,-4.3131,-4.3164,-4.3182,-4.3164,-4.3257,-4.3239,-4.3205,-4.3148,-4.3247,-4.3285,-4.33,-4.3094,-4.3092,-4.309,-4.3089,0,0,-4.3027,-4.3045,-4.3062,-4.3075,-4.3093,-4.3127,-4.318,-4.3214,-4.3237,-4.3258,-4.3302,-4.3355,-4.3323,-4.334,-4.3323,-4.3362,-4.3457,-4.3322,-4.3322,-4.3347,-4.3559,-4.3585,-4.3603,-4.3437,-4.344,-4.3442,-4.3557,0,-4.3143,-4.3237,-4.322,-4.331,-4.3351,-4.3311,-4.3357,-4.3373,-4.337,-4.3404,-4.34,-4.3439,-4.3394,-4.3404,-4.344,-4.3438,-4.3499,-4.3429,-4.3476,-4.3478,-4.3473,-4.3623,-4.365,-4.3759,-4.3572,-4.3575,-4.3576,0,-4.3292,-4.3319,-4.3414,-4.3425,-4.3441,-4.3484,-4.3513,-4.3546,-4.3561,-4.3557,-4.3576,-4.3552,-4.3603,-4.3547,-4.3617,-4.3569,-4.3587,-4.3589,-4.3593,-4.3596,-4.3533,-4.363,-4.3793,-4.3809,-4.3599,-4.3598,-4.3596,0,-4.34,-4.3461,-4.3525,-4.3537,-4.3552,-4.3582,-4.3589,-4.3602,-4.3623,-4.3648,-4.3661,-4.3692,-4.3708,-4.3731,-4.3716,-4.3676,-4.3788,-4.373,-4.3784,-4.3785,-4.381,-4.3808,-4.3978,-4.3822,-4.3822,-4.3822,-4.3821,0,-4.3531,-4.3591,-4.3574,-4.3614,-4.3678,-4.3658,-4.3722,-4.3724,-4.3736,-4.3774,-4.3741,-4.3777,-4.3754,-4.3789,-4.3776,-4.3836,-4.3843,-4.384,-4.3836,-4.3843,-4.3843,-4.3854,-4.3846,-4.3826,-4.3825,-4.3824,-4.3823,0,-4.3664,-4.3655,-4.3722,-4.3731,-4.3734,-4.3781,-4.3788,-4.3824,-4.3819,-4.3868,-4.3878,-4.387,-4.3908,-4.3895,-4.3936,-4.3927,-4.4003,-4.3989,-4.3998,-4.3994,-4.4049,-4.4044,-4.4231,-4.4254,-4.4084,-4.4086,-4.4087,0,-4.3748,-4.3793,-4.3806,-4.383,-4.384,-4.3879,-4.39,-4.3881,-4.3905,-4.3926,-4.3959,-4.3995,-4.4022,-4.4085,-4.4082,-4.4113,-4.4099,-4.4163,-4.4104,-4.4109,-4.41,-4.4097,-4.4101,-4.4174,-4.4176,-4.4178,-4.4179,0,-4.3898,-4.3892,-4.3925,-4.3956,-4.3983,-4.4007,-4.4027,-4.4048,-4.403,-4.4058,-4.4098,-4.4119,-4.4161,-4.4196,-4.4224,-4.4229,-4.4201,-4.4198,-4.4212,-4.4219,-4.4223,-4.4221,-4.4029,-4.4194,-4.4192,-4.4191,-4.419,-4.419,-4.4008,-4.4046,-4.4062,-4.4099,-4.4113,-4.4133,-4.4167,-4.4167,-4.42,-4.4233,-4.4219,-4.4264,-4.4278,-4.4312,-4.4322,-4.4356,-4.4331,-4.4352,-4.4357,-4.4362,-4.4369,-4.4218,-4.4361,-4.4361,-4.436,-4.436,-4.4359,0,-4.4156,-4.4164,-4.4199,-4.423,-4.4259,-4.4231,-4.4252,-4.4278,-4.4319,-4.4334,-4.4362,-4.4407,-4.4441,-4.4441,-4.4472,-4.4499,-4.4487,-4.4508,-4.4506,-4.4507,-4.439,-4.4374,-4.4517,-4.4517,-4.4517,-4.4517,-4.4517,-4.4517,-4.4237,-4.4299,-4.4295,-4.4363,-4.4369,-4.4415,-4.4429,-4.4446,-4.4459,-4.4511,-4.4539,-4.4539,-4.4548,-4.458,-4.4609,-4.4608,-4.4621,-4.4647,-4.4641,-4.4531,-4.4516,-4.4501,-4.4486,-4.465,-4.465,-4.4755,-4.4756,-4.4757]}]]